Showing default

HORACIO, 59098

Orbit data source: Space-Track

HORACIO, 59098 is a payload satellite owned by Satlantis (ES) in SSO that was launched on Mon, 04 Mar 2024 UTC via an FALCON 9 launch vehicle from the Air Force Western Test Range (AFWTR). Payload-class satellites include a variety of spacecraft equipped with specific instruments for various scientific and technological missions. These include communications satellites like Starlink; space stations such as the ISS; scientific satellites like the Hubble; Earth observation satellites from companies like Planet Labs, Umbra, and HawkEye 360; GPS; miniature CubeSats for education and research; and military/defense satellites.

Loading next visibility...
Identifier
59098, 2024-043A
Orbit
SSO
Country
Flag of ESES / SPN
Related business
Manufacturer
NanoAvionics
Mission
Operational Commercial Imaging
Bus & Motor
CUBESAT 16U M16P, Unknown motor
Mass
~20 kg wet, ~20 kg dry
Launch date (UTC)
2024-03-04 (2 years ago)
Launch vehicle
FALCON 9
Launch site
Air Force Western Test Range (AFWTR)
Object type
Payload
Rocket body
Debris
Shape & HBR
Box, 0.2 m
Radar Cross Section
0.100 m², Medium (>0.1 m² and < 1m²)

Expand to show TLE details & history
Last TLE update: 7 hours ago

TLE from 7 hours ago
0 HORACIO
1 59098U 24043A   25303.34926244  .00004363  00000-0  38423-3 0  9990
2 59098  97.8235  69.3291 0011795  71.5162 288.7340 14.96949498 90264
Epoch: 2025-10-30T08:22Z
TLE epoch observation values (Epoch: 2025-10-30T08:22:56.274Z)
Latitude
-0.00007°
Longitude
-95.31469°
Altitude
576.749 km
Speed
7.574 km/s
True Right ascension
04h 37m 18s
True Declination
0° 00' 00"
Sunlit
Object was in full shadow at epoch
Visualization orbit readout
Latitude
Unknown
Longitude
Unknown
Altitude
Unknown
Speed
Unknown
Apparent Right ascension
Unknown
Apparent Declination
Unknown
Sunlit
N/A
Visualization observer readout
Local Sidereal Time
10:56:24
Azimuth
Unknown
Elevation
Unknown
Doppler factor
Unknown
Orbital elements
Apogee altitude
581.542 km
Perigee altitude
565.144 km
Semi-major axis
6,951.48 km
Eccentricity
0.00118
Inclination
97.8235°
RAAN
69.3291°
Arg. of periapsis
71.5162°
True anomaly
288.60594°
Mean anomaly
288.734°
Eccentric anomaly
288.66998°
Mean motion
3.74479 °/min
Orbital period
96.13 mins
BSTAR
0.00038423
Loading maneuver chart data...
Computing Atmospheric mass density...
Loading historical data...
Loading historical data...
Loading historical data...
Loading historical data...
Loading historical data...
Loading historical data...
Loading historical data...

Documentation

Showing up to 5 results
|